Location: Unspecified
(43.4680°N, 87.1740°E)
Time: 14:41:07
(UTC+00:00)

Cosmos 1356 Rocket - Pass Details

Date: 02 August 2021
Orbit: 543 x 597 km, 81.2° (Epoch: 19 September)

Event Time Altitude Azimuth Distance (km) Brightness Sun altitude
Exits shadow 20:15:25 41° 307° (NW) 805 4.1 -23.3°
Drops below altitude 10° 20:18:43 10° 357° (N) 1,819 6.7 -23.0°
Sets 20:20:59 0° 4° (N) 2,717 7.9 -22.8°
